SR2WXM Weather Reports


Display with metric or nautical units.
time (UTC)temp
F
wind
direction
speed
MPH
gust
MPH
rain 1hr
in
rain 24hr
in
rain mn
in
humidity
%
barometer
mb
20240304234802 40 22 0.0 0.0 0.00 0.00 0.00 84 1005.2
20240304234302 40 22 0.0 0.0 0.00 0.00 0.00 84 1005.2
20240304233801 40 22 0.0 0.0 0.00 0.00 0.00 84 1005.1
20240304233301 40 22 0.0 2.0 0.00 0.00 0.00 84 1005.1
20240304232801 40 22 0.0 0.0 0.00 0.00 0.00 83 1005.1
20240304232301 40 22 0.0 0.0 0.00 0.00 0.00 83 1005.0
20240304231800 41 22 0.0 2.0 0.00 0.00 0.00 83 1005.1
20240304231300 41 22 0.0 2.0 0.00 0.00 0.00 83 1005.1
20240304230800 41 22 2.0 2.0 0.00 0.00 0.00 83 1005.1
20240304230259 41 22 0.0 0.0 0.00 0.00 0.00 83 1005.1
20240304225759 41 22 0.0 0.0 0.00 0.00 0.00 83 1005.1
20240304225259 41 22 0.0 0.0 0.00 0.00 0.00 83 1005.0
20240304224759 41 22 0.0 0.0 0.00 0.00 0.00 83 1005.0
20240304224258 41 22 0.0 0.0 0.00 0.00 0.00 83 1005.0
20240304223758 41 22 0.0 0.0 0.00 0.00 0.00 83 1005.1
20240304223258 41 22 0.0 0.0 0.00 0.00 0.00 83 1005.1
20240304222757 41 22 0.0 0.0 0.00 0.00 0.00 84 1005.2
20240304222257 41 22 0.0 2.0 0.00 0.00 0.00 84 1005.1
20240304221757 41 22 2.0 2.0 0.00 0.00 0.00 84 1005.2
20240304221256 41 22 0.0 1.0 0.00 0.00 0.00 84 1005.2
20240304220756 41 22 1.0 4.0 0.00 0.00 0.00 84 1005.2
20240304220256 41 22 0.0 4.0 0.00 0.00 0.00 84 1005.2
20240304215756 41 22 0.0 0.0 0.00 0.00 0.00 84 1005.3
20240304215256 41 22 0.0 0.0 0.00 0.00 0.00 84 1005.3
20240304214756 41 22 0.0 0.0 0.00 0.00 0.00 84 1005.3
20240304214255 41 22 0.0 0.0 0.00 0.00 0.00 84 1005.3
20240304213754 41 22 0.0 2.0 0.00 0.00 0.00 84 1005.2
20240304213254 42 22 0.0 0.0 0.00 0.00 0.00 84 1005.2
20240304212754 42 22 0.0 0.0 0.00 0.00 0.00 84 1005.2
20240304212254 42 22 0.0 2.0 0.00 0.00 0.00 84 1005.2
20240304211753 42 22 2.0 3.0 0.00 0.00 0.00 84 1005.3
20240304211253 41 22 3.0 7.0 0.00 0.00 0.00 84 1005.2
20240304210753 41 22 7.0 7.0 0.00 0.00 0.00 84 1005.2
20240304210252 41 22 0.0 2.0 0.00 0.00 0.00 84 1005.2
20240304205752 41 22 0.0 0.0 0.00 0.00 0.00 84 1005.1
20240304205252 41 22 0.0 0.0 0.00 0.00 0.00 84 1005.2
20240304204752 41 22 0.0 4.0 0.00 0.00 0.00 84 1005.2
20240304204251 41 22 4.0 6.0 0.00 0.00 0.00 84 1005.2
20240304203751 41 22 0.0 5.0 0.00 0.00 0.00 84 1005.2
20240304203251 41 22 5.0 5.0 0.00 0.00 0.00 84 1005.2
20240304202750 41 22 5.0 8.0 0.00 0.00 0.00 84 1005.2
20240304202250 41 22 0.0 2.0 0.00 0.00 0.00 84 1005.3
20240304201750 41 22 0.0 8.0 0.00 0.00 0.00 84 1005.2
20240304201250 42 22 8.0 8.0 0.00 0.00 0.00 84 1005.2
20240304200749 42 22 0.0 4.0 0.00 0.00 0.00 84 1005.2
20240304200250 42 22 0.0 6.0 0.00 0.00 0.00 84 1005.2
20240304195749 42 22 6.0 6.0 0.00 0.00 0.00 84 1005.2
20240304195248 42 22 5.0 10.0 0.00 0.00 0.00 84 1005.2
20240304194748 42 22 9.0 9.0 0.00 0.00 0.00 83 1005.2
20240304194248 42 22 3.0 6.0 0.00 0.00 0.00 83 1005.2
20240304193747 42 22 6.0 10.0 0.00 0.00 0.00 83 1005.1
20240304193247 42 22 10.0 10.0 0.00 0.00 0.00 83 1005.1
20240304192747 42 22 4.0 7.0 0.00 0.00 0.00 84 1005.0
20240304192247 42 22 1.0 6.0 0.00 0.00 0.00 84 1005.2
20240304191746 42 22 6.0 9.0 0.00 0.00 0.00 84 1005.2
20240304191246 42 22 9.0 9.0 0.00 0.00 0.00 84 1005.2
20240304190746 42 22 2.0 8.0 0.00 0.00 0.00 84 1005.2
20240304190246 42 22 4.0 4.0 0.00 0.00 0.00 84 1005.2
20240304185745 42 22 1.0 2.0 0.00 0.00 0.00 84 1005.2
20240304185245 42 22 2.0 2.0 0.00 0.00 0.00 84 1005.2
20240304184745 42 22 2.0 2.0 0.00 0.00 0.00 84 1005.2
20240304184244 42 22 2.0 6.0 0.00 0.00 0.00 84 1005.3
20240304183744 42 22 6.0 6.0 0.00 0.00 0.00 84 1005.3
20240304183244 42 22 5.0 6.0 0.00 0.00 0.00 84 1005.3
20240304182743 42 22 6.0 8.0 0.00 0.00 0.00 84 1005.3
20240304182243 42 22 0.0 7.0 0.00 0.00 0.00 84 1005.2
20240304181743 42 22 4.0 9.0 0.00 0.00 0.00 84 1005.2
20240304181243 42 22 9.0 9.0 0.00 0.00 0.00 84 1005.2
20240304180742 42 22 4.0 4.0 0.00 0.00 0.00 84 1005.1
20240304180242 43 22 2.0 10.0 0.00 0.00 0.00 84 1005.1
20240304175742 43 22 2.0 11.0 0.00 0.00 0.00 84 1004.8
20240304175241 43 22 6.0 7.0 0.00 0.00 0.00 84 1004.9
20240304174741 43 22 7.0 11.0 0.00 0.00 0.00 84 1004.7
20240304174241 43 22 8.0 8.0 0.00 0.00 0.00 84 1004.8
20240304173741 43 22 2.0 2.0 0.00 0.00 0.00 84 1004.7
20240304173240 43 22 2.0 8.0 0.00 0.00 0.00 83 1004.7
20240304172740 43 22 8.0 8.0 0.00 0.00 0.00 83 1004.7
20240304172240 43 22 5.0 7.0 0.00 0.00 0.00 83 1004.7
20240304171739 43 22 7.0 7.0 0.00 0.00 0.00 83 1004.7
20240304171239 43 22 6.0 10.0 0.00 0.00 0.00 83 1004.7
20240304170739 43 22 10.0 10.0 0.00 0.00 0.00 83 1004.7
20240304170239 43 22 6.0 8.0 0.00 0.00 0.00 83 1004.6
20240304165738 43 22 6.0 8.0 0.00 0.00 0.00 83 1004.5
20240304165238 43 22 6.0 6.0 0.00 0.00 0.00 83 1004.5
20240304164738 43 22 4.0 8.0 0.00 0.00 0.00 83 1004.4
20240304164237 43 22 8.0 8.0 0.00 0.00 0.00 83 1004.3
20240304163737 43 22 6.0 11.0 0.00 0.00 0.00 83 1004.3
20240304163237 44 22 11.0 11.0 0.00 0.00 0.00 82 1004.1
20240304162736 44 22 5.0 5.0 0.00 0.00 0.00 82 1004.1
20240304162236 44 22 1.0 5.0 0.00 0.00 0.00 82 1004.0
20240304161736 44 22 5.0 8.0 0.00 0.00 0.00 82 1004.0
20240304161236 44 22 8.0 8.0 0.00 0.00 0.00 82 1003.9
20240304160735 44 22 8.0 8.0 0.00 0.00 0.00 82 1004.0
20240304160235 44 22 0.0 9.0 0.00 0.00 0.00 82 1004.1
20240304155735 44 22 9.0 9.0 0.00 0.00 0.00 82 1004.0
20240304155234 44 22 3.0 5.0 0.00 0.00 0.00 82 1004.0
20240304154734 44 22 5.0 7.0 0.00 0.00 0.00 82 1004.2
20240304154234 44 22 5.0 5.0 0.00 0.00 0.00 82 1004.1
20240304153734 44 22 2.0 10.0 0.00 0.00 0.00 82 1004.0
20240304153233 44 22 0.0 8.0 0.00 0.00 0.00 82 1004.1
20240304152733 44 22 8.0 8.0 0.00 0.00 0.00 82 1004.2
20240304152233 44 22 8.0 8.0 0.00 0.00 0.00 82 1004.1
20240304151732 44 22 3.0 9.0 0.00 0.00 0.00 82 1004.1
20240304151232 44 22 9.0 9.0 0.00 0.00 0.00 82 1004.0
20240304150732 45 22 6.0 6.0 0.00 0.00 0.00 82 1003.9
20240304150232 45 22 5.0 5.0 0.00 0.00 0.00 82 1003.9
20240304145731 45 22 4.0 6.0 0.00 0.00 0.00 81 1003.8
20240304145231 45 22 6.0 7.0 0.00 0.00 0.00 82 1003.8
20240304144731 45 22 2.0 4.0 0.00 0.00 0.00 82 1003.7
20240304144230 45 22 4.0 4.0 0.00 0.00 0.00 82 1003.7
20240304143730 45 22 4.0 9.0 0.00 0.00 0.00 82 1003.7
20240304143230 45 22 3.0 7.0 0.00 0.00 0.00 82 1003.7
20240304142730 45 22 7.0 7.0 0.00 0.00 0.00 82 1003.7
20240304142229 45 22 3.0 7.0 0.00 0.00 0.00 82 1003.7
20240304141729 45 22 7.0 9.0 0.00 0.00 0.00 81 1003.7
20240304141229 45 22 7.0 8.0 0.00 0.00 0.00 82 1003.6
20240304140728 46 22 3.0 7.0 0.00 0.00 0.00 82 1003.7
20240304140228 46 22 7.0 10.0 0.00 0.00 0.00 82 1003.7
20240304135728 46 22 6.0 7.0 0.00 0.00 0.00 82 1003.6
20240304135227 45 22 7.0 7.0 0.00 0.00 0.00 82 1003.7
20240304134727 45 22 0.0 6.0 0.00 0.00 0.00 82 1003.6
20240304134227 45 22 1.0 8.0 0.00 0.00 0.00 82 1003.6
20240304133727 45 22 4.0 6.0 0.00 0.00 0.00 82 1003.6
20240304133226 45 22 2.0 4.0 0.00 0.00 0.00 82 1003.5
20240304132726 45 22 4.0 4.0 0.00 0.00 0.00 82 1003.5
20240304132226 45 22 0.0 8.0 0.00 0.00 0.00 81 1003.5
20240304131725 45 22 8.0 8.0 0.00 0.00 0.00 81 1003.6
20240304131225 45 22 6.0 8.0 0.00 0.00 0.00 81 1003.6
20240304130725 45 22 8.0 8.0 0.00 0.00 0.00 81 1003.5
20240304130225 45 22 5.0 13.0 0.00 0.00 0.00 81 1003.4
20240304125724 45 22 13.0 14.0 0.00 0.00 0.00 81 1003.4
20240304125224 46 22 7.0 7.0 0.00 0.00 0.00 81 1003.4
20240304124724 46 22 7.0 9.0 0.00 0.00 0.00 81 1003.4
20240304124223 46 22 6.0 8.0 0.00 0.00 0.00 81 1003.4
20240304123723 46 22 8.0 8.0 0.00 0.00 0.00 80 1003.4
20240304123223 46 22 6.0 10.0 0.00 0.00 0.00 80 1003.3
20240304122723 46 22 10.0 10.0 0.00 0.00 0.00 80 1003.3
20240304122222 46 22 0.0 7.0 0.00 0.00 0.00 80 1003.3
20240304121722 46 22 5.0 12.0 0.00 0.00 0.00 80 1003.3
20240304121222 47 22 11.0 11.0 0.00 0.00 0.00 79 1003.2
20240304120721 47 22 0.0 11.0 0.00 0.00 0.00 79 1003.2
20240304120221 48 22 11.0 14.0 0.00 0.00 0.00 79 1003.3
20240304115721 48 22 14.0 14.0 0.00 0.00 0.00 79 1003.3
20240304115221 48 22 7.0 11.0 0.00 0.00 0.00 79 1003.3
20240304114720 48 22 11.0 11.0 0.00 0.00 0.00 79 1003.4
20240304114220 48 22 4.0 7.0 0.00 0.00 0.00 79 1003.3
20240304113720 48 22 6.0 8.0 0.00 0.00 0.00 80 1003.3
20240304113219 48 22 8.0 8.0 0.00 0.00 0.00 80 1003.3
20240304112719 48 22 6.0 12.0 0.00 0.00 0.00 81 1003.2
20240304112219 48 22 12.0 12.0 0.00 0.00 0.00 81 1003.2
20240304111719 48 22 8.0 8.0 0.00 0.00 0.00 81 1003.2
20240304111218 48 22 3.0 7.0 0.00 0.00 0.00 81 1003.2
20240304110718 48 22 7.0 9.0 0.00 0.00 0.00 81 1003.3
20240304110218 48 22 9.0 16.0 0.00 0.00 0.00 81 1003.2
20240304105717 47 22 16.0 16.0 0.00 0.00 0.00 82 1003.3
20240304105217 47 22 12.0 13.0 0.00 0.00 0.00 82 1003.4
20240304104717 47 22 13.0 15.0 0.00 0.00 0.00 82 1003.4
20240304104216 47 22 14.0 14.0 0.00 0.00 0.00 83 1003.3
20240304103716 46 22 6.0 15.0 0.00 0.00 0.00 83 1003.3
20240304103216 46 22 14.0 15.0 0.00 0.00 0.00 84 1003.3
20240304102716 45 22 6.0 9.0 0.00 0.00 0.00 85 1003.4
20240304102215 45 22 9.0 9.0 0.00 0.00 0.00 85 1003.4
20240304101715 45 22 0.0 12.0 0.00 0.00 0.00 85 1003.5
20240304101215 44 22 12.0 13.0 0.00 0.00 0.00 85 1003.6
20240304100714 44 22 3.0 6.0 0.00 0.00 0.00 86 1003.6
20240304100214 44 22 6.0 9.0 0.00 0.00 0.00 86 1003.5
20240304095714 43 22 9.0 9.0 0.00 0.00 0.00 85 1003.5
20240304095214 43 22 8.0 8.0 0.00 0.00 0.00 85 1003.5
20240304094713 43 22 3.0 8.0 0.00 0.00 0.00 85 1003.5
20240304094213 43 22 4.0 10.0 0.00 0.00 0.00 85 1003.4
20240304093713 43 22 10.0 10.0 0.00 0.00 0.00 85 1003.5
20240304093212 43 22 7.0 8.0 0.00 0.00 0.00 85 1003.4
20240304092712 43 22 8.0 11.0 0.00 0.00 0.00 85 1003.3
20240304092212 43 22 11.0 14.0 0.00 0.00 0.00 85 1003.3
20240304091712 43 22 14.0 16.0 0.00 0.00 0.00 85 1003.3
20240304091211 43 22 8.0 12.0 0.00 0.00 0.00 86 1003.2
20240304090711 42 22 8.0 8.0 0.00 0.00 0.00 86 1003.2
20240304090211 42 22 0.0 6.0 0.00 0.00 0.00 86 1003.3
20240304085710 42 22 6.0 10.0 0.00 0.00 0.00 86 1003.3
20240304085210 42 22 10.0 10.0 0.00 0.00 0.00 86 1003.2
20240304084710 42 22 5.0 8.0 0.00 0.00 0.00 86 1003.2
20240304084210 42 22 8.0 10.0 0.00 0.00 0.00 86 1003.0
20240304083709 42 22 3.0 9.0 0.00 0.00 0.00 86 1003.1
20240304083209 42 22 9.0 13.0 0.00 0.00 0.00 86 1003.0
20240304082709 41 22 13.0 13.0 0.00 0.00 0.00 86 1003.0
20240304082208 41 22 6.0 13.0 0.00 0.00 0.00 86 1002.9
20240304081708 41 22 7.0 11.0 0.00 0.00 0.00 86 1002.9
20240304081208 41 22 7.0 10.0 0.00 0.00 0.00 86 1002.8
20240304080707 41 22 10.0 10.0 0.00 0.00 0.00 86 1002.9
20240304080207 41 22 8.0 10.0 0.00 0.00 0.00 86 1002.8
20240304075707 41 22 8.0 9.0 0.00 0.00 0.00 86 1002.8
20240304075207 41 22 6.0 11.0 0.00 0.00 0.00 86 1002.9
20240304074706 41 22 11.0 11.0 0.00 0.00 0.00 87 1002.8
20240304074206 41 22 8.0 15.0 0.00 0.00 0.00 87 1002.9
20240304073706 41 22 7.0 13.0 0.00 0.00 0.00 87 1002.9
20240304073205 41 22 1.0 7.0 0.00 0.00 0.00 87 1002.9
20240304072705 40 22 7.0 7.0 0.00 0.00 0.00 88 1002.8
20240304072205 40 22 6.0 12.0 0.00 0.00 0.00 88 1002.7
20240304071705 40 22 12.0 12.0 0.00 0.00 0.00 88 1002.7
20240304071204 40 22 10.0 10.0 0.00 0.00 0.00 88 1002.6
20240304070704 40 22 5.0 13.0 0.00 0.00 0.00 88 1002.7
20240304070204 39 22 13.0 14.0 0.00 0.00 0.00 88 1002.7
20240304065703 39 22 14.0 14.0 0.00 0.00 0.00 88 1002.6
20240304065203 39 22 4.0 6.0 0.00 0.00 0.00 88 1002.6
20240304064703 39 22 6.0 6.0 0.00 0.00 0.00 88 1002.6
20240304064203 39 22 0.0 5.0 0.00 0.00 0.00 88 1002.6
20240304063702 39 22 1.0 1.0 0.00 0.00 0.00 88 1002.7
20240304063202 39 22 0.0 7.0 0.00 0.00 0.00 88 1002.5
20240304062702 39 22 7.0 10.0 0.00 0.00 0.00 88 1002.4
20240304062201 39 22 10.0 12.0 0.00 0.00 0.00 88 1002.3
20240304061701 39 22 7.0 8.0 0.00 0.00 0.00 87 1002.2
20240304061201 39 22 8.0 9.0 0.00 0.00 0.00 87 1002.2
20240304060701 39 22 5.0 8.0 0.00 0.00 0.00 87 1002.1
20240304060200 39 22 0.0 11.0 0.00 0.00 0.00 87 1002.1
20240304055700 39 22 5.0 8.0 0.00 0.00 0.00 87 1002.1
20240304055200 39 22 7.0 7.0 0.00 0.00 0.00 87 1002.1
20240304054659 39 22 6.0 6.0 0.00 0.00 0.00 87 1002.0
20240304054159 39 22 5.0 6.0 0.00 0.00 0.00 87 1002.0
20240304053659 39 22 6.0 7.0 0.00 0.00 0.00 87 1002.0
20240304053159 39 22 2.0 2.0 0.00 0.00 0.00 87 1001.9
20240304052658 39 22 0.0 0.0 0.00 0.00 0.00 87 1001.7
20240304052158 39 22 0.0 6.0 0.00 0.00 0.00 87 1001.6
20240304051658 40 22 2.0 10.0 0.00 0.00 0.00 87 1001.7
20240304051157 40 22 6.0 12.0 0.00 0.00 0.00 87 1001.7
20240304050657 40 22 3.0 6.0 0.00 0.00 0.00 87 1001.7
20240304050157 40 22 0.0 0.0 0.00 0.00 0.00 87 1001.7
20240304045656 40 22 0.0 4.0 0.00 0.00 0.00 87 1001.7
20240304045156 40 22 4.0 4.0 0.00 0.00 0.00 87 1001.6
20240304044656 40 22 2.0 6.0 0.00 0.00 0.00 87 1001.4
20240304044156 40 22 6.0 6.0 0.00 0.00 0.00 87 1001.5
20240304043655 40 22 6.0 6.0 0.00 0.00 0.00 87 1001.5
20240304043155 41 22 0.0 6.0 0.00 0.00 0.00 87 1001.5
20240304042655 41 22 5.0 8.0 0.00 0.00 0.00 87 1001.4
20240304042154 40 22 8.0 10.0 0.00 0.00 0.00 87 1001.3
20240304041654 41 22 2.0 2.0 0.00 0.00 0.00 87 1001.2
20240304041154 41 22 1.0 3.0 0.00 0.00 0.00 87 1001.3
20240304040654 41 22 3.0 5.0 0.00 0.00 0.00 87 1001.2
20240304040153 41 22 2.0 2.0 0.00 0.00 0.00 87 1001.3
20240304035653 41 22 2.0 6.0 0.00 0.00 0.00 87 1001.2
20240304035153 41 22 6.0 8.0 0.00 0.00 0.00 87 1001.3
20240304034652 41 22 1.0 2.0 0.00 0.00 0.00 87 1001.3
20240304034152 41 22 2.0 4.0 0.00 0.00 0.00 87 1001.3
20240304033652 41 22 4.0 6.0 0.00 0.00 0.00 87 1001.3
20240304033152 41 22 5.0 5.0 0.00 0.00 0.00 87 1001.3
20240304032651 41 22 5.0 5.0 0.00 0.00 0.00 87 1001.3
20240304032151 41 22 4.0 4.0 0.00 0.00 0.00 86 1001.2
20240304031651 41 22 4.0 7.0 0.00 0.00 0.00 86 1001.2
20240304031150 41 22 4.0 8.0 0.00 0.00 0.00 86 1001.2
20240304030650 41 22 5.0 8.0 0.00 0.00 0.00 86 1001.3
20240304030150 41 22 0.0 6.0 0.00 0.00 0.00 86 1001.3
20240304025650 41 22 0.0 4.0 0.00 0.00 0.00 86 1001.4
20240304025149 41 22 4.0 7.0 0.00 0.00 0.00 86 1001.5
20240304024649 41 22 6.0 6.0 0.00 0.00 0.00 86 1001.5
20240304024149 42 22 6.0 6.0 0.00 0.00 0.00 86 1001.4
20240304023648 42 22 0.0 3.0 0.00 0.00 0.00 86 1001.4
20240304023148 42 22 0.0 5.0 0.00 0.00 0.00 86 1001.4
20240304022648 42 22 5.0 5.0 0.00 0.00 0.00 86 1001.2
20240304022148 42 22 0.0 6.0 0.00 0.00 0.00 86 1001.1
20240304021647 42 22 0.0 3.0 0.00 0.00 0.00 86 1001.3
20240304021147 42 22 0.0 5.0 0.00 0.00 0.00 86 1001.3
20240304020647 42 22 5.0 8.0 0.00 0.00 0.00 86 1001.3
20240304020146 42 22 8.0 8.0 0.00 0.00 0.00 86 1001.3
20240304015646 42 22 5.0 5.0 0.00 0.00 0.00 86 1001.3
20240304015146 42 22 5.0 8.0 0.00 0.00 0.00 86 1001.3
20240304014646 43 22 8.0 8.0 0.00 0.00 0.00 86 1001.3
20240304014145 43 22 2.0 12.0 0.00 0.00 0.00 86 1001.3
20240304013645 43 22 7.0 7.0 0.00 0.00 0.00 86 1001.4
20240304013145 43 22 2.0 6.0 0.00 0.00 0.00 86 1001.4
20240304012644 43 22 6.0 10.0 0.00 0.00 0.00 86 1001.3
20240304012144 44 22 8.0 10.0 0.00 0.00 0.00 86 1001.2
20240304011644 44 22 2.0 6.0 0.00 0.00 0.00 86 1001.3
20240304011143 44 22 6.0 6.0 0.00 0.00 0.00 86 1001.3
20240304010643 44 22 6.0 6.0 0.00 0.00 0.00 86 1001.3
20240304010143 44 22 0.0 6.0 0.00 0.00 0.00 86 1001.2
20240304005643 44 22 6.0 7.0 0.00 0.00 0.00 86 1001.3
20240304005142 44 22 7.0 7.0 0.00 0.00 0.00 86 1001.3
20240304004642 44 22 1.0 2.0 0.00 0.00 0.00 86 1001.3
20240304004142 44 22 2.0 9.0 0.00 0.00 0.00 86 1001.3
20240304003641 44 22 4.0 4.0 0.00 0.00 0.00 86 1001.3
20240304003141 44 22 2.0 6.0 0.00 0.00 0.00 86 1001.1
20240304002641 44 22 6.0 6.0 0.00 0.00 0.00 86 1001.2
20240304002141 44 22 5.0 6.0 0.00 0.00 0.00 86 1001.1
20240304001640 44 22 3.0 10.0 0.00 0.00 0.00 86 1001.2
20240304001140 44 22 10.0 10.0 0.00 0.00 0.00 86 1001.3
20240304000640 44 22 0.0 10.0 0.00 0.00 0.00 86 1001.1
20240304000139 44 22 10.0 10.0 0.00 0.00 0.00 86 1001.2
20240303235639 44 22 8.0 8.0 0.00 0.00 0.00 86 1001.2
20240303235139 44 22 6.0 7.0 0.00 0.00 0.00 86 1001.1